Simultaneous Nadir Overpasses (SNOs) Predictions

Prediction of SNOs between METOP-B and TERRA Satellite Orbit:

Table of predicted SNOs for the next 14.0 days since TLE Epoch: 5/14/2016
Index Date (METOP-B) Time (METOP-B) Lat,Lon (METOP-B) SZA (METOP-B ) Date (TERRA) Time (TERRA) Lat,Lon (TERRA) SZA (TERRA ) Distance(km) Time Diff (sec)
1 05/14/2016 23:21:27 -81.27, 56.06 114.72 05/14/2016 23:22:40 -81.26, 55.95 114.71 1.90 73
2 05/15/2016 00:12:07 81.27,-136.42 65.30 05/15/2016 00:12:06 81.27,-136.28 65.31 2.38 1
3 05/15/2016 01:02:42 -81.30, 33.30 114.42 05/15/2016 01:01:28 -81.36, 33.18 114.43 7.78 74
4 05/17/2016 18:55:50 -81.27, 122.74 115.33 05/17/2016 18:56:57 -81.27, 122.58 115.31 2.75 67
5 05/17/2016 19:46:30 81.27, -69.74 64.69 05/17/2016 19:46:23 81.28, -69.68 64.70 1.18 7
6 05/
